Powrót do katalogu

STARLINK-35177

AktywnyŁącznośćSSO
NORAD 65673·PAYLOAD·🇺🇸 United States

Wystrzelony Sep 19, 2025 z Vandenberg Space Force Base

Loading…

Następne Przeloty (najbliższe 24 godziny)

TLE

ŚwieżeSource: CelesTrak SupGP

Epoka: Sep 15, 2026, 04:15 UTC

1 65673C 25211X   26258.17756944 -.00052947  00000+0 -16436-2 0  2582
2 65673  97.2834 298.5209 0000858  96.2493 124.3860 15.33467480    17

Śledź STARLINK-35177 w czasie rzeczywistym z AllMySat

Download on the App Store